Location: Eschertshofen
(49.3064°N, 11.5756°E)
Time: 12:29:37
(UTC+00:00)

SJ-6B - Pass Details

Date: 18 September 2020
Orbit: 511 x 580 km, 97.6° (Epoch: 22 October)

Event Time Altitude Azimuth Distance (km) Brightness Sun altitude
Exits shadow 19:21:18 18° 193° (SSW) 1,288 4.5 -19.9°
Maximum altitude 19:23:46 46° 261° (W) 698 3.6 -20.2°
Drops below altitude 10° 19:27:25 10° 336° (NNW) 1,754 6.1 -20.7°
Sets 19:29:36 0° 342° (NNW) 2,654 7.0 -21.1°
